Location: Kuala Lumpur International
(3.1298°N, 101.5524°E)
Time: 06:21:54
(UTC+00:00)

CZ-3 R/B - Pass Details

Date: 05 August 2024
Orbit: 503 x 10060 km, 28.3° (Epoch: 13 September)

Event Time Altitude Azimuth Distance (km) Brightness Sun altitude
Exits shadow 21:30:25 20° 220° (SW) 6,797 5.3 -25.1°
Maximum altitude 21:44:23 39° 168° (SSE) 3,046 3.9 -21.8°
Drops below altitude 10° 21:51:57 10° 100° (E) 3,154 5.0 -20.0°
Sets 21:53:59 0° 90° (E) 3,696 5.8 -19.5°
